User: anonymous   Login
Location: Bacharowice
(49.9333°N, 19.5833°E)
Time: 19:21:16
(UTC+00:00)
Language:

Envisat - Orbit

View from above orbital plane
View from above orbital plane
View from above satellite
View from above satellite

Ground track
Ground track

The orbit data is extracted from the following two-line orbital elements,

1 27386U 02009A   24147.54272157  .00000244  00000-0  93424-4 0  9994
2 27386  98.2810 109.3853 0001230  90.6895  24.5708 14.38578778165464
Epoch (UTC): 26 May 2024 13:01:31
Eccentricity: 0.0001230
inclination: 98.2810°
perigee height: 762 km
apogee height: 764 km
right ascension of ascending node: 109.3853°
argument of perigee: 90.6895°
revolutions per day: 14.38578778
mean anomaly at epoch: 24.5708°
orbit number at epoch: 16546

The dashed part of the orbit path shows where the satellite is in the earth's shadow,  

DLR